Phoenix Deer Valley, AZ

5:43 PM MST on August 21, 2017 (GMT -0700)
Phoenix-Deer Valley Municipal

Weather History for KDVT - March, 2014

Change the Weather History Date:

Thursday, March 27, 2014

  Actual Average Record
Temperature  
Mean Temperature 61 °F -  
Max Temperature 69 °F 75 °F 90 °F (2015)
Min Temperature 53 °F 52 °F 46 °F (2009)
Degree Days  
Heating Degree Days 4    
Growing Degree Days 11 (Base 50)    
Moisture  
Dew Point 35 °F    
Average Humidity 38    
Maximum Humidity 55    
Minimum Humidity 26    
Precipitation  
Precipitation 0.00 in - - ()
Sea Level Pressure  
Sea Level Pressure 29.87 in    
Wind  
Wind Speed 6 mph (SW)    
Max Wind Speed 13 mph    
Max Gust Speed 21 mph    
Visibility 10 miles    
Events      
Averages and records for this station are not official NWS values.
T = Trace of Precipitation, MM = Missing Value Source: NWS Daily Summary

Daily Weather History Graph

Daily Weather History Graph

Search for Another Location

Airport or City:

Trip Planner

Search our weather history database for the weather conditions in past years. The results will help you decide how hot, cold, wet, or windy it might be!

Date:

Astronomy

Mar. 27, 2014 Rise Set
Actual Time 6:22 AM MST 6:45 PM MST
Civil Twilight 5:57 AM MST 7:10 PM MST
Nautical Twilight 5:28 AM MST 7:39 PM MST
Astronomical Twilight 4:58 AM MST 8:09 PM MST
Moon 4:07 AM MST (3/27) 3:45 PM MST (3/27)
Length of Visible Light 13h 12m
Length of Day
12h 22m
Waning Crescent, 12% of the Moon is Illuminated
Mar 27
Waning Crescent
Mar 30
New
Apr 7
First Quarter
Apr 15
Full
Apr 22
Last Quarter

Hourly Weather History & Observations

Time (MST) Temp. Dew Point Humidity Pressure Visibility Wind Dir Wind Speed Gust Speed Precip Events Conditions
12:53 AM 60.1 °F 37.9 °F 44% 29.80 in 10.0 mi SSW 9.2 mph - N/A   Mostly Cloudy
1:53 AM 59.0 °F 37.0 °F 44% 29.80 in 10.0 mi WSW 8.1 mph - N/A   Mostly Cloudy
2:53 AM 57.0 °F 37.0 °F 47% 29.79 in 10.0 mi WSW 4.6 mph - N/A   Clear
3:53 AM 55.0 °F 37.0 °F 51% 29.81 in 10.0 mi SSW 6.9 mph - N/A   Clear
4:53 AM 54.0 °F 37.0 °F 53% 29.83 in 10.0 mi SW 3.5 mph - N/A   Clear
5:53 AM 53.1 °F 37.0 °F 55% 29.85 in 10.0 mi Calm Calm - N/A   Clear
6:53 AM 53.1 °F 37.0 °F 55% 29.87 in 10.0 mi Calm Calm - N/A   Clear
7:53 AM 55.0 °F 37.0 °F 51% 29.89 in 10.0 mi SW 3.5 mph - N/A   Clear
8:53 AM 57.0 °F 37.0 °F 47% 29.91 in 10.0 mi South 5.8 mph - N/A   Clear
9:53 AM 60.1 °F 37.0 °F 42% 29.92 in 10.0 mi WNW 6.9 mph - N/A   Clear
10:53 AM 63.0 °F 37.0 °F 38% 29.92 in 10.0 mi West 8.1 mph - N/A   Clear
11:53 AM 64.9 °F 36.0 °F 34% 29.91 in 10.0 mi SW 8.1 mph - N/A   Clear
12:53 PM 66.0 °F 35.1 °F 32% 29.89 in 10.0 mi WSW 5.8 mph - N/A   Clear
1:53 PM 68.0 °F 35.1 °F 30% 29.87 in 10.0 mi SSW 5.8 mph - N/A   Clear
2:53 PM 69.1 °F 35.1 °F 29% 29.86 in 10.0 mi WSW 12.7 mph 20.7 mph N/A   Scattered Clouds
3:53 PM 69.1 °F 35.1 °F 29% 29.86 in 10.0 mi Variable 5.8 mph - N/A   Partly Cloudy
4:53 PM 69.1 °F 33.1 °F 26% 29.84 in 10.0 mi SW 5.8 mph - N/A   Partly Cloudy
5:53 PM 68.0 °F 32.0 °F 26% 29.84 in 10.0 mi WSW 10.4 mph 16.1 mph N/A   Clear
6:53 PM 66.9 °F 33.1 °F 28% 29.84 in 10.0 mi South 4.6 mph - N/A   Clear
7:53 PM 66.0 °F 32.0 °F 28% 29.86 in 10.0 mi SSW 5.8 mph - N/A   Clear
8:53 PM 64.9 °F 32.0 °F 29% 29.89 in 10.0 mi SSW 8.1 mph - N/A   Clear
9:53 PM 63.0 °F 30.0 °F 29% 29.90 in 10.0 mi SSW 6.9 mph - N/A   Clear
10:53 PM 61.0 °F 30.9 °F 32% 29.92 in 10.0 mi Calm Calm - N/A   Clear
11:53 PM 59.0 °F 30.9 °F 35% 29.93 in 10.0 mi Calm Calm - N/A   Clear